Terminal Aerodrome Forecast
Issued by NWS Grand Forks, ND

Home | Current Version | Previous Version | Graphics & Text | Print | Product List | Glossary On
Versions: 1 2 3 4 5 6 7 8 9 10 11 12 13 14 15 16 17 18 19 20 21 22 23 24
000
FTUS43 KFGF 211300 AAA
TAFGFK
TAF AMD
KGFK 211359Z 2114/2212 33008KT P6SM BKN011
     FM211600 34008KT P6SM BKN020
     FM220000 22004KT P6SM SKC=

USA.gov is the U.S. government's official web portal to all federal, state and local government web resources and services.